Regional Weather Roundup
Issued by NWS

Home | Current Version | Previous Version | Graphics & Text | Print | Product List | Glossary On
Versions: 1 2 3 4 5 6 7 8 9 10 11 12 13 14 15 16 17 18 19 20 21 22 23 24 25 26 27 28 29 30 31 32 33 34 35 36 37 38 39 40 41 42 43 44 45 46 47 48 49 50
000
ASUS43 KMKX 310500
RWRWI

WISCONSIN REGIONAL WEATHER ROUNDUP
NATIONAL WEATHER SERVICE MILWAUKEE/SULLIVAN WI
1200 AM CDT THU JUL 31 2014

NOTE: "FAIR" INDICATES FEW OR NO CLOUDS BELOW 12,000 FEET WITH NO
SIGNIFICANT WEATHER AND/OR OBSTRUCTIONS TO VISIBILITY.

WIZ001-002-006>008-014>016-023>028-310600-
NORTHWEST WISCONSIN

CITY           SKY/WX    TMP DP  RH WIND       PRES   REMARKS
SUPERIOR ARPT  PTCLDY    66  58  76 W7        29.98S
ASHLAND        MOCLDY    62  60  93 W3        29.98S
HAYWARD        LGT RAIN  64  61  90 CALM      30.01S
SIREN          CLEAR     63  57  79 NW3       30.02S
RICE LAKE      CLEAR     59  58  95 CALM      30.03S FOG
LADYSMITH      PTCLDY    61  59  94 CALM      30.03S
EAU CLAIRE     NOT AVBL
MENOMONIE      CLEAR     65  57  76 W5        30.03R
NEW RICHMOND   CLEAR     62  56  82 W6        30.03S
OSCEOLA        CLEAR     62  58  86 CALM      30.05S
$$

WIZ003>005-009-010-017-018-310600-
NORTH CENTRAL WISCONSIN

CITY           SKY/WX    TMP DP  RH WIND       PRES   REMARKS
WOODRUFF       PTCLDY    57  49  75 CALM      30.00S
RHINELANDER    PTCLDY    53  52  96 CALM      30.01S
EAGLE RIVER    FOG       51  51 100 CALM      30.00S VSB 1/4
LAND O LAKES   FOG       52  52 100 CALM      30.01S VSB 1/4
PHILLIPS       MOCLDY    59  58  97 CALM      30.01R
TOMAHAWK       FOG       52  51  97 CALM      30.01S VSB 1/4
MEDFORD        LGT RAIN  60  58  95 SW7       30.02S
MERRILL        PTCLDY    56  56 100 CALM      30.00S
$$

WIZ029-030-035-036-043>047-310600-
CENTRAL WISCONSIN

CITY           SKY/WX    TMP DP  RH WIND       PRES   REMARKS
WAUSAU         MOCLDY    62  58  86 NW8       30.00R
MOSINEE        DRIZZLE   61  59  94 W8        30.02R
MARSHFIELD     CLOUDY    62  59  90 NE5       30.03R
STEVENS POINT  MOCLDY    62  56  82 W7        30.01S
WAUPACA        PTCLDY    62  58  86 W3        30.00S
WAUTOMA        NOT AVBL
WISC RAPIDS    LGT RAIN  63  59  87 NW9       30.04R
CAMP DOUGLAS   NOT AVBL
$$

WIZ011>013-019>022-031-037>040-048>050-310600-
NORTHEAST WISCONSIN

CITY           SKY/WX    TMP DP  RH WIND       PRES   REMARKS
ANTIGO         CLEAR     53  52  98 CALM      30.01S
STURGEON BAY   MOCLDY    61  55  82 W7        29.97S
GREEN BAY      PTCLDY    59  58  96 SW6       29.98S
MANITOWOC      NOT AVBL
APPLETON       PTCLDY    59  55  88 CALM      30.00S
CLINTONVILLE   CLEAR     55  54  94 CALM      29.99S
OSHKOSH        PTCLDY    64  55  72 CALM      30.00R
$$

WIZ032>034-041-042-053>061-310600-
SOUTHWEST WISCONSIN

CITY           SKY/WX    TMP DP  RH WIND       PRES   REMARKS
LA CROSSE      CLEAR     67  62  84 SE3       30.02S
SPARTA         PTCLDY    61  60  96 CALM      30.03S FOG
VIROQUA        FAIR      63  61  93 SW7       30.05S
BOSCOBEL       CLEAR     62  60  93 SW3       30.04S
PRAIRIE DU CHI CLEAR     62  59  88 CALM      30.04S
PLATTEVILLE    FAIR      63  58  83 SW5       30.06F
$$

WIZ056-057-062-063-064-067-068-310600-
SOUTH CENTRAL WISCONSIN

CITY           SKY/WX    TMP DP  RH WIND       PRES   REMARKS
BARABOO/DELLS  PTCLDY    62  53  72 SW5       30.02F
LONE ROCK      NOT AVBL
WATERTOWN      CLEAR     59  54  83 CALM      30.01F
MADISON        CLEAR     62  54  74 CALM      30.03S
MIDDLETON      FAIR      58  55  88 CALM      30.03F
MONROE         CLEAR     66  52  59 W6        30.05S
JANESVILLE     CLEAR     61  55  82 CALM      30.03F
$$

WIZ051-052-058>065-066-070>072-310600-
SOUTHEAST WISCONSIN

CITY           SKY/WX    TMP DP  RH WIND       PRES   REMARKS
MILWAUKEE      MOCLDY    61  54  77 SW7       30.02S
WAUKESHA       CLEAR     55  52  88 S3        30.03S
MILWAUKEE/TIMM CLEAR     59  54  82 S3        30.02F
RACINE         CLEAR     59  54  83 SW6       30.04S
BURLINGTON     CLEAR     52  51  96 CALM      30.03S
KENOSHA        CLEAR     55  54  96 SW6       30.03F
FOND DU LAC    CLOUDY    63  56  78 NE9       30.01R
SHEBOYGAN      MOCLDY    58  56  93 CALM      30.00R
WEST BEND      PTCLDY    63  52  67 SW3       30.00F
JUNEAU         MOCLDY    60  53  76 CALM      30.02F
$$

LSZ147-162-310600-
LAKE SUPERIOR

STATION/POSITION TIME  TEMP    WIND        PRES    WAVE
                       AIR SEA DIR/SP/G            HT/PER
                 (UTC) (F)     (DEG/KT/KT) (MB)    (FT/S)
W MID LAKE BUOY  0350   52 42  240/  4/  4 1014.5F   1/ 4
PORT WING        0400   64     190/  2/  3 1014.9
SAXON HARBOR     0440          190/  3/  5 1014.9S
$$

LMZ867-665-643>646-310600-
LAKE MICHIGAN

STATION/POSITION TIME  TEMP    WIND        PRES    WAVE
                       AIR SEA DIR/SP/G            HT/PER
                 (UTC) (F)     (DEG/KT/KT) (MB)    (FT/S)
N MID LAKE BUOY  0350   57 54  210/  8/ 10 1013.9F   1
NORTHPORT PIER   0400   58     210/  4/  5 1014.6S
SISTER BAY       0410   59        CALM       N/A
ALGOMA LAKESHORE 0421          280/  6/  7   N/A
KEWAUNEE LAKESHO 0400   62      CALM  /  4 1014.4F
SHEBOYGAN LAKESH 0400   63     190/ 10/ 10 1015.7F
PORT WASHINGTON  0400   62     240/  2/  4 1016.6S
ATWATER BUOY     0400   64     200/  8     1017.4R
MILWAUKEE LAKESH 0400   64     230/  8/ 10   N/A
S MID LAKE BUOY  0350   61 61  210/  6/  8 1017.0R   0
KENOSHA   LAKESH 0400   62     200/  5/  8 1016.6S
$$

TC  - TEMPERATURE IN CELSIUS
VSB - VISIBILITY IN STATUTE MILES
WCI - WIND CHILL INDEX
HX  - HEAT INDEX




USA.gov is the U.S. government's official web portal to all federal, state and local government web resources and services.